CW1656 Weather Reports


Display with metric or nautical units.
time (UTC)temp
F
wind
direction
speed
MPH
gust
MPH
rain 1hr
in
rain 24hr
in
rain mn
in
humidity
%
barometer
mb
20260509161525 59 171 1.0 5.0 0.00 0.00 0.00 75 1007.9
20260509160018 61 138 1.0 6.0 0.00 0.00 0.00 72 1008.1
20260509154515 60 137 0.0 5.0 0.00 0.00 0.00 73 1008.2
20260509153020 59 151 0.0 3.0 0.00 0.00 0.00 76 1008.4
20260509151512 59 131 2.0 4.0 0.00 0.00 0.00 77 1008.5
20260509150009 58 140 2.0 5.0 0.00 0.00 0.00 77 1008.7
20260509144508 58 126 3.0 7.0 0.00 0.00 0.00 79 1008.7
20260509143006 57 134 2.0 5.0 0.00 0.00 0.00 78 1008.8
20260509141507 57 138 2.0 4.0 0.00 0.00 0.00 80 1008.9
20260509140106 55 144 2.0 6.0 0.00 0.00 0.00 83 1008.9
20260509134558 54 154 3.0 9.0 0.00 0.00 0.00 83 1009.1
20260509133101 54 130 3.0 9.0 0.00 0.00 0.00 84 1009.3
20260509131551 53 150 3.0 5.0 0.00 0.00 0.00 85 1009.5
20260509130053 52 178 2.0 5.0 0.00 0.00 0.00 86 1009.6
20260509124548 51 139 1.0 8.0 0.00 0.02 0.00 87 1009.8
20260509123041 49 147 1.0 3.0 0.00 0.02 0.00 87 1009.8
20260509121549 47 148 1.0 4.0 0.00 0.02 0.00 86 1009.9
20260509120029 46 159 2.0 3.0 0.00 0.02 0.00 86 1009.9
20260509114547 45 165 0.0 2.0 0.00 0.03 0.00 85 1009.9
20260509113023 44 165 0.0 2.0 0.00 0.03 0.00 84 1010.0
20260509111520 43 165 1.0 2.0 0.00 0.03 0.00 83 1010.0
20260509110021 43 165 1.0 2.0 0.00 0.03 0.00 83 1010.0
20260509104521 42 167 1.0 2.0 0.00 0.03 0.00 82 1009.9
20260509103017 42 158 1.0 3.0 0.00 0.03 0.00 82 1009.9
20260509101517 42 154 1.0 2.0 0.00 0.03 0.00 81 1009.8
20260509100016 42 148 1.0 2.0 0.00 0.03 0.00 80 1009.8
20260509094517 42 148 1.0 2.0 0.00 0.03 0.00 80 1009.9
20260509093014 42 148 1.0 3.0 0.00 0.03 0.00 80 1009.9
20260509091512 42 123 1.0 3.0 0.00 0.03 0.00 79 1010.0
20260509090027 42 163 2.0 3.0 0.00 0.03 0.00 79 1010.1
20260509084508 41 167 2.0 3.0 0.00 0.03 0.00 79 1010.2
20260509083016 41 167 2.0 4.0 0.00 0.03 0.00 78 1010.2
20260509081506 41 164 1.0 4.0 0.00 0.03 0.00 78 1010.3
20260509080010 41 149 1.0 3.0 0.00 0.03 0.00 77 1010.5
20260509074503 41 154 1.0 2.0 0.00 0.03 0.00 77 1010.5
20260509073004 41 153 1.0 3.0 0.00 0.03 0.00 77 1010.5
20260509071603 41 153 1.0 3.0 0.00 0.03 0.00 76 1010.7
20260509070100 41 153 2.0 5.0 0.00 0.03 0.00 74 1010.8
20260509064556 41 154 1.0 3.0 0.00 0.03 0.00 75 1010.9
20260509063109 42 166 2.0 3.0 0.00 0.03 0.00 75 1011.2
20260509061556 41 166 2.0 3.0 0.00 0.03 0.00 76 1011.4
20260509060053 40 161 1.0 2.0 0.00 0.03 0.00 82 1011.5
20260509054546 40 161 0.0 2.0 0.00 0.03 0.00 80 1011.7
20260509053047 40 161 0.0 2.0 0.00 0.03 0.00 81 1011.8
20260509051545 41 161 0.0 0.0 0.00 0.03 0.00 81 1012.0
20260509050051 41 161 0.0 0.0 0.00 0.03 0.00 78 1012.2
20260509044537 44 161 0.0 2.0 0.00 0.03 0.00 72 1012.2
20260509043042 44 160 1.0 3.0 0.00 0.03 0.00 75 1012.3
20260509041531 42 209 0.0 0.0 0.00 0.03 0.00 83 1012.5
20260509040026 42 209 0.0 0.0 0.00 0.03 0.00 80 1012.6
20260509034527 45 209 0.0 2.0 0.00 0.06 0.03 75 1012.6
20260509033035 44 209 0.0 1.0 0.00 0.06 0.03 77 1012.6
20260509031529 43 280 0.0 1.0 0.00 0.06 0.03 80 1012.6
20260509030027 43 280 0.0 1.0 0.00 0.06 0.03 79 1012.7
20260509024527 43 280 0.0 0.0 0.00 0.08 0.03 78 1012.8
20260509023025 43 280 0.0 0.0 0.00 0.08 0.03 78 1012.8
20260509021523 44 280 0.0 0.0 0.00 0.08 0.03 78 1012.6
20260509020022 45 280 0.0 0.0 0.00 0.08 0.03 76 1012.7
20260509014524 46 280 0.0 1.0 0.00 0.08 0.03 74 1012.8
20260509013022 46 280 0.0 1.0 0.00 0.08 0.03 75 1012.8
20260509011521 47 280 0.0 0.0 0.00 0.08 0.03 73 1012.7
20260509010020 47 280 0.0 0.0 0.00 0.08 0.03 70 1012.5
20260509004521 49 280 0.0 0.0 0.00 0.08 0.03 68 1012.2
20260509003019 49 280 0.0 0.0 0.00 0.08 0.03 66 1012.1
20260509001519 50 280 0.0 0.0 0.00 0.08 0.03 65 1012.0
20260509000034 52 280 0.0 0.0 0.00 0.08 0.03 61 1011.9
20260508234517 53 280 0.0 0.0 0.00 0.08 0.03 60 1011.9
20260508233016 54 280 0.0 1.0 0.00 0.08 0.03 51 1011.8
20260508231516 54 280 0.0 0.0 0.00 0.08 0.03 54 1011.7
20260508230014 54 280 0.0 2.0 0.00 0.08 0.03 49 1011.7
20260508224537 56 279 0.0 6.0 0.00 0.08 0.03 45 1011.8
20260508223014 56 282 0.0 4.0 0.00 0.08 0.03 43 1011.7
20260508221516 56 293 0.0 4.0 0.00 0.08 0.03 45 1011.7
20260508220012 56 192 0.0 5.0 0.00 0.08 0.03 42 1011.9
20260508214516 57 321 1.0 7.0 0.00 0.09 0.03 45 1011.9
20260508213010 56 283 1.0 6.0 0.00 0.09 0.03 45 1011.9
20260508211515 56 348 1.0 5.0 0.00 0.09 0.03 49 1012.0
20260508210007 56 329 1.0 8.0 0.00 0.09 0.03 52 1012.1
20260508204506 56 302 1.0 3.0 0.00 0.09 0.03 59 1012.1
20260508203004 56 311 3.0 10.0 0.00 0.09 0.03 57 1012.3
20260508201506 55 277 0.0 3.0 0.00 0.09 0.03 52 1012.4
20260508200004 57 157 1.0 8.0 0.00 0.09 0.03 47 1012.6
20260508194602 56 340 2.0 10.0 0.00 0.09 0.03 51 1012.9
20260508193105 55 284 2.0 8.0 0.00 0.09 0.03 47 1013.0
20260508191558 56 311 2.0 11.0 0.00 0.09 0.03 50 1013.1
20260508190055 55 302 4.0 9.0 0.00 0.09 0.03 49 1013.2
20260508184555 57 297 1.0 8.0 0.00 0.09 0.03 55 1013.4
20260508183109 54 98 0.0 5.0 0.00 0.09 0.03 55 1013.3
20260508181609 55 27 4.0 10.0 0.00 0.09 0.03 54 1013.4
20260508180049 55 270 2.0 9.0 0.00 0.09 0.03 56 1013.5
20260508174549 54 312 2.0 9.0 0.00 0.09 0.03 56 1013.5
20260508173046 55 277 2.0 8.0 0.00 0.09 0.03 61 1013.8
20260508171550 52 333 2.0 8.0 0.00 0.09 0.03 67 1013.9
20260508170043 52 138 1.0 8.0 0.00 0.09 0.03 65 1014.0
20260508164541 53 155 1.0 7.0 0.00 0.09 0.03 70 1014.2
20260508163045 51 265 2.0 6.0 0.00 0.09 0.03 69 1014.3